Year,Month,Day,Hour,Minute,Value (Times are PST for temperature in C)
2011,10,01,08,43,10.90
2011,10,01,08,44,10.90
2011,10,01,08,45,10.90
2011,10,01,08,46,10.90
2011,10,01,08,47,10.90
2011,10,01,08,48,10.90
2011,10,01,08,49,11.00
2011,10,01,08,50,11.00
2011,10,01,08,51,11.00
2011,10,01,08,52,11.00
2011,10,01,08,53,11.00
2011,10,01,08,54,11.00
2011,10,01,08,55,11.00
2011,10,01,08,56,11.10
2011,10,01,08,57,11.10
2011,10,01,08,58,11.10
2011,10,01,08,59,11.10
2011,10,01,09,00,11.10
2011,10,01,09,01,11.10
2011,10,01,09,02,11.10
2011,10,01,09,03,11.10
2011,10,01,09,04,11.10
2011,10,01,09,05,11.10
2011,10,01,09,06,11.00
2011,10,01,09,07,11.00
2011,10,01,09,08,11.00
2011,10,01,09,09,10.90
2011,10,01,09,10,10.90
2011,10,01,09,11,10.90
2011,10,01,09,12,10.90
2011,10,01,09,13,10.90
2011,10,01,09,14,10.90
2011,10,01,09,15,10.80
2011,10,01,09,16,10.80
2011,10,01,09,17,10.80
2011,10,01,09,18,10.80
2011,10,01,09,19,10.80
2011,10,01,09,20,10.80
2011,10,01,09,21,10.80
2011,10,01,09,22,10.80
2011,10,01,09,23,10.90
2011,10,01,09,24,10.90
2011,10,01,09,25,10.90
2011,10,01,09,26,10.90
2011,10,01,09,27,10.90
2011,10,01,09,28,10.90
2011,10,01,09,29,10.90
2011,10,01,09,30,10.90
2011,10,01,09,31,10.90
2011,10,01,09,32,10.90
2011,10,01,09,33,10.90
2011,10,01,09,34,10.90
2011,10,01,09,35,10.90
2011,10,01,09,36,10.90
2011,10,01,09,37,11.00
2011,10,01,09,38,11.00
2011,10,01,09,39,11.00
2011,10,01,09,40,11.00
2011,10,01,09,41,11.00
2011,10,01,09,42,11.00
2011,10,01,09,43,11.00
2011,10,01,09,44,11.00
2011,10,01,09,45,11.00
2011,10,01,09,46,11.00
2011,10,01,09,47,11.00
2011,10,01,09,48,11.00
2011,10,01,09,49,11.00
2011,10,01,09,50,11.00
2011,10,01,09,51,11.00
2011,10,01,09,52,11.00
2011,10,01,09,53,11.00
2011,10,01,09,54,11.00
2011,10,01,09,55,11.00
2011,10,01,09,56,11.00
2011,10,01,09,57,11.10
2011,10,01,09,58,11.10
2011,10,01,09,59,11.10
2011,10,01,10,00,11.10
2011,10,01,10,01,11.10
2011,10,01,10,02,11.10
2011,10,01,10,03,11.10
2011,10,01,10,04,11.10
2011,10,01,10,05,11.10
2011,10,01,10,06,11.10
2011,10,01,10,07,11.20
2011,10,01,10,08,11.20
2011,10,01,10,09,11.20
2011,10,01,10,10,11.20
2011,10,01,10,11,11.20
2011,10,01,10,12,11.20
2011,10,01,10,13,11.20
2011,10,01,10,14,11.30
2011,10,01,10,15,11.30
2011,10,01,10,16,11.30
2011,10,01,10,17,11.30
2011,10,01,10,18,11.30
2011,10,01,10,19,11.30
2011,10,01,10,20,11.30
2011,10,01,10,21,11.30
2011,10,01,10,22,11.40
2011,10,01,10,23,11.40
2011,10,01,10,24,11.40
2011,10,01,10,25,11.40
2011,10,01,10,26,11.40
2011,10,01,10,27,11.40
2011,10,01,10,28,11.50
2011,10,01,10,29,11.50
2011,10,01,10,30,11.50
2011,10,01,10,31,11.50
2011,10,01,10,32,11.50
2011,10,01,10,33,11.50
2011,10,01,10,34,11.50
2011,10,01,10,35,11.50
2011,10,01,10,36,11.50
2011,10,01,10,37,11.60
2011,10,01,10,38,11.60
2011,10,01,10,39,11.60
2011,10,01,10,40,11.60
2011,10,01,10,41,11.60
2011,10,01,10,42,11.60
2011,10,01,10,43,11.60
2011,10,01,10,44,11.70
2011,10,01,10,45,11.70
2011,10,01,10,46,11.70
2011,10,01,10,47,11.70
2011,10,01,10,48,11.80
2011,10,01,10,49,11.80
2011,10,01,10,50,11.80
2011,10,01,10,51,11.90
2011,10,01,10,52,11.90
2011,10,01,10,53,12.00
2011,10,01,10,54,12.00
2011,10,01,10,55,12.10
2011,10,01,10,56,12.10
2011,10,01,10,57,12.10
2011,10,01,10,58,12.20
2011,10,01,10,59,12.20
2011,10,01,11,00,12.20
2011,10,01,11,01,12.30
2011,10,01,11,02,12.40
2011,10,01,11,03,12.40
2011,10,01,11,04,12.50
2011,10,01,11,05,12.50
2011,10,01,11,06,12.60
2011,10,01,11,07,12.70
2011,10,01,11,08,12.70
2011,10,01,11,09,12.70
2011,10,01,11,10,12.70
2011,10,01,11,11,12.80
2011,10,01,11,12,12.80
2011,10,01,11,13,12.80
2011,10,01,11,14,12.90
2011,10,01,11,15,12.90
2011,10,01,11,16,12.90
2011,10,01,11,17,12.90
2011,10,01,11,18,13.00
2011,10,01,11,19,13.00
2011,10,01,11,20,12.90
2011,10,01,11,21,12.90
2011,10,01,11,22,12.90
2011,10,01,11,23,12.90
2011,10,01,11,24,12.80
2011,10,01,11,25,12.80
2011,10,01,11,26,12.80
2011,10,01,11,27,12.80
2011,10,01,11,28,12.70
2011,10,01,11,29,12.70
2011,10,01,11,30,12.70
2011,10,01,11,31,12.70
2011,10,01,11,32,12.70
2011,10,01,11,33,12.70
2011,10,01,11,34,12.70
2011,10,01,11,35,12.70
2011,10,01,11,36,12.70
2011,10,01,11,37,12.70
2011,10,01,11,38,12.70
2011,10,01,11,39,12.70
2011,10,01,11,40,12.70
2011,10,01,11,41,12.70
2011,10,01,11,42,12.70
2011,10,01,11,43,12.80
2011,10,01,11,44,12.80
2011,10,01,11,45,12.80
2011,10,01,11,46,12.80
2011,10,01,11,47,12.90
2011,10,01,11,48,12.90
2011,10,01,11,49,13.00
2011,10,01,11,50,13.00
2011,10,01,11,51,13.10
2011,10,01,11,52,13.10
2011,10,01,11,53,13.20
2011,10,01,11,54,13.20
2011,10,01,11,55,13.20
2011,10,01,11,56,13.30
2011,10,01,11,57,13.30
2011,10,01,11,58,13.30
2011,10,01,11,59,13.30
2011,10,01,12,00,13.30
2011,10,01,12,01,13.30
2011,10,01,12,02,13.30
2011,10,01,12,03,13.30
2011,10,01,12,04,13.30
2011,10,01,12,05,13.30
2011,10,01,12,06,13.30
2011,10,01,12,07,13.30
2011,10,01,12,08,13.40
2011,10,01,12,09,13.40
2011,10,01,12,10,13.50
2011,10,01,12,11,13.60
2011,10,01,12,12,13.60
2011,10,01,12,13,13.60
2011,10,01,12,14,13.70
2011,10,01,12,15,13.70
2011,10,01,12,16,13.80
2011,10,01,12,17,13.80
2011,10,01,12,18,13.80
2011,10,01,12,19,13.80
2011,10,01,12,20,13.80
2011,10,01,12,21,13.80
2011,10,01,12,22,13.80
2011,10,01,12,23,13.80
2011,10,01,12,24,13.80
2011,10,01,12,25,13.70
2011,10,01,12,26,13.70
2011,10,01,12,27,13.70
2011,10,01,12,28,13.60
2011,10,01,12,29,13.60
2011,10,01,12,30,13.60
2011,10,01,12,31,13.60
2011,10,01,12,32,13.60
2011,10,01,12,33,13.60
2011,10,01,12,34,13.60
2011,10,01,12,35,13.70
2011,10,01,12,36,13.70
2011,10,01,12,37,13.70
2011,10,01,12,38,13.70
2011,10,01,12,39,13.70
2011,10,01,12,40,13.70
2011,10,01,12,41,13.80
2011,10,01,12,42,13.80
2011,10,01,12,43,13.90
2011,10,01,12,44,13.90
2011,10,01,12,45,13.90
2011,10,01,12,46,13.90
2011,10,01,12,47,14.00
2011,10,01,12,48,14.10
2011,10,01,12,49,14.10
2011,10,01,12,50,14.20
2011,10,01,12,51,14.30
2011,10,01,12,52,14.30
2011,10,01,12,53,14.40
2011,10,01,12,54,14.50
2011,10,01,12,55,14.50
2011,10,01,12,56,14.50
2011,10,01,12,57,14.60
2011,10,01,12,58,14.60
2011,10,01,12,59,14.70
2011,10,01,13,00,14.70
2011,10,01,13,01,14.70
2011,10,01,13,02,14.70
2011,10,01,13,03,14.70
2011,10,01,13,04,14.60
2011,10,01,13,05,14.60
2011,10,01,13,06,14.70
2011,10,01,13,07,14.70
2011,10,01,13,08,14.70
2011,10,01,13,09,14.70
2011,10,01,13,10,14.80
2011,10,01,13,11,14.80
2011,10,01,13,12,14.90
2011,10,01,13,13,15.00
2011,10,01,13,14,15.00
2011,10,01,13,15,15.00
2011,10,01,13,16,15.00
2011,10,01,13,17,15.10
2011,10,01,13,18,15.20
2011,10,01,13,19,15.20
2011,10,01,13,20,15.30
2011,10,01,13,21,15.30
2011,10,01,13,22,15.30
2011,10,01,13,23,15.30
2011,10,01,13,24,15.20
2011,10,01,13,25,15.20
2011,10,01,13,26,15.20
2011,10,01,13,27,15.20
2011,10,01,13,28,15.30
2011,10,01,13,29,15.30
2011,10,01,13,30,15.30
2011,10,01,13,31,15.30
2011,10,01,13,32,15.40
2011,10,01,13,33,15.40
2011,10,01,13,34,15.40
2011,10,01,13,35,15.40
2011,10,01,13,36,15.40
2011,10,01,13,37,15.40
2011,10,01,13,38,15.40
2011,10,01,13,39,15.50
2011,10,01,13,40,15.60
2011,10,01,13,41,15.70
2011,10,01,13,42,15.70
2011,10,01,13,43,15.70
2011,10,01,13,44,15.80
2011,10,01,13,45,15.80
2011,10,01,13,46,15.80
2011,10,01,13,47,15.80
2011,10,01,13,48,15.80
2011,10,01,13,49,15.80
2011,10,01,13,50,15.80
2011,10,01,13,51,15.90
2011,10,01,13,52,15.90
2011,10,01,13,53,15.90
2011,10,01,13,54,16.00
2011,10,01,13,55,16.00
2011,10,01,13,56,16.00
2011,10,01,13,57,16.00
2011,10,01,13,58,16.10
2011,10,01,13,59,16.00
2011,10,01,14,00,16.00
2011,10,01,14,01,16.00
2011,10,01,14,02,15.90
2011,10,01,14,03,15.90
2011,10,01,14,04,15.90
2011,10,01,14,05,15.90
2011,10,01,14,06,15.90
2011,10,01,14,07,15.90
2011,10,01,14,08,16.00
2011,10,01,14,09,16.00
2011,10,01,14,10,16.10
2011,10,01,14,11,16.10
2011,10,01,14,12,16.10
2011,10,01,14,13,16.20
2011,10,01,14,14,16.20
2011,10,01,14,15,16.10
2011,10,01,14,16,16.10
2011,10,01,14,17,16.10
2011,10,01,14,18,16.10
2011,10,01,14,19,16.10
2011,10,01,14,20,16.10
2011,10,01,14,21,16.10
2011,10,01,14,22,16.10
2011,10,01,14,23,16.10
2011,10,01,14,24,16.10
2011,10,01,14,25,16.10
2011,10,01,14,26,16.10
2011,10,01,14,27,16.10
2011,10,01,14,28,16.10
2011,10,01,14,29,16.10
2011,10,01,14,30,16.10
2011,10,01,14,31,16.10
2011,10,01,14,32,16.20
2011,10,01,14,33,16.20
2011,10,01,14,34,16.20
2011,10,01,14,35,16.20
2011,10,01,14,36,16.10
2011,10,01,14,37,16.10
2011,10,01,14,38,16.10
2011,10,01,14,39,16.10
2011,10,01,14,40,16.10
2011,10,01,14,41,16.10
2011,10,01,14,42,16.10
2011,10,01,14,43,16.10
2011,10,01,14,44,16.10
2011,10,01,14,45,16.10
2011,10,01,14,46,16.10
2011,10,01,14,47,16.10
2011,10,01,14,48,16.10
2011,10,01,14,49,16.10
2011,10,01,14,50,16.10
2011,10,01,14,51,16.20
2011,10,01,14,52,16.20
2011,10,01,14,53,16.20
2011,10,01,14,54,16.20
2011,10,01,14,55,16.20
2011,10,01,14,56,16.20
2011,10,01,14,57,16.20
2011,10,01,14,58,16.20
2011,10,01,14,59,16.20
2011,10,01,15,00,16.30
2011,10,01,15,01,16.30
2011,10,01,15,02,16.30
2011,10,01,15,03,16.40
2011,10,01,15,04,16.40
2011,10,01,15,05,16.40
2011,10,01,15,06,16.40
2011,10,01,15,07,16.40
2011,10,01,15,08,16.40
2011,10,01,15,09,16.30
2011,10,01,15,10,16.30
2011,10,01,15,11,16.30
2011,10,01,15,12,16.30
2011,10,01,15,13,16.30
2011,10,01,15,14,16.30
2011,10,01,15,15,16.30
2011,10,01,15,16,16.40
2011,10,01,15,17,16.40
2011,10,01,15,18,16.40
2011,10,01,15,19,16.40
2011,10,01,15,20,16.30
2011,10,01,15,21,16.30
2011,10,01,15,22,16.30
2011,10,01,15,23,16.30
2011,10,01,15,24,16.30
2011,10,01,15,25,16.40
2011,10,01,15,26,16.40
2011,10,01,15,27,16.40
2011,10,01,15,28,16.30
2011,10,01,15,29,16.30
2011,10,01,15,30,16.20
2011,10,01,15,31,16.20
2011,10,01,15,32,16.10
2011,10,01,15,33,16.10
2011,10,01,15,34,16.10
2011,10,01,15,35,16.10
2011,10,01,15,36,16.10
2011,10,01,15,37,16.10
2011,10,01,15,38,16.10
2011,10,01,15,39,16.10
2011,10,01,15,40,16.10
2011,10,01,15,41,16.10
2011,10,01,15,42,16.20
2011,10,01,15,43,16.20
2011,10,01,15,44,16.10
2011,10,01,15,45,16.10
2011,10,01,15,46,16.10
2011,10,01,15,47,16.00
2011,10,01,15,48,15.90
2011,10,01,15,49,15.90
2011,10,01,15,50,16.00
2011,10,01,15,51,16.00
2011,10,01,15,52,16.00
2011,10,01,15,53,16.00
2011,10,01,15,54,16.00
2011,10,01,15,55,16.00
2011,10,01,15,56,16.00
2011,10,01,15,57,16.00
2011,10,01,15,58,16.00
2011,10,01,15,59,15.90
2011,10,01,16,00,15.90
2011,10,01,16,01,15.90
2011,10,01,16,02,15.90
2011,10,01,16,03,15.90
2011,10,01,16,04,15.90
2011,10,01,16,05,15.90
2011,10,01,16,06,15.90
2011,10,01,16,07,15.90
2011,10,01,16,08,15.90
2011,10,01,16,09,15.90
2011,10,01,16,10,16.00
2011,10,01,16,11,16.00
2011,10,01,16,12,16.00
2011,10,01,16,13,16.00
2011,10,01,16,14,16.00
2011,10,01,16,15,16.00
2011,10,01,16,16,16.00
2011,10,01,16,17,16.00
2011,10,01,16,18,16.00
2011,10,01,16,19,16.00
2011,10,01,16,20,16.00
2011,10,01,16,21,16.00
2011,10,01,16,22,16.10
2011,10,01,16,23,16.10
2011,10,01,16,24,16.10
2011,10,01,16,25,16.10
2011,10,01,16,26,16.10
2011,10,01,16,27,16.10
2011,10,01,16,28,16.10
2011,10,01,16,29,16.10
2011,10,01,16,30,16.10
2011,10,01,16,31,16.10
2011,10,01,16,32,16.10
2011,10,01,16,33,16.10
2011,10,01,16,34,16.10
2011,10,01,16,35,16.10
2011,10,01,16,36,16.10
2011,10,01,16,37,16.10
2011,10,01,16,38,16.10
2011,10,01,16,39,16.20
2011,10,01,16,40,16.20
2011,10,01,16,41,16.20
2011,10,01,16,42,16.30
2011,10,01,16,43,16.30
2011,10,01,16,44,16.30
2011,10,01,16,45,16.30
2011,10,01,16,46,16.30
2011,10,01,16,47,16.30
2011,10,01,16,48,16.30
2011,10,01,16,49,16.30
2011,10,01,16,50,16.30
2011,10,01,16,51,16.30
2011,10,01,16,52,16.20
2011,10,01,16,53,16.20
2011,10,01,16,54,16.20
2011,10,01,16,55,16.10
2011,10,01,16,56,16.10
2011,10,01,16,57,16.10
2011,10,01,16,58,16.10
2011,10,01,16,59,16.00
2011,10,01,17,00,16.00
2011,10,01,17,01,16.00
2011,10,01,17,02,16.10
2011,10,01,17,03,16.00
2011,10,01,17,04,16.00
2011,10,01,17,05,16.00
2011,10,01,17,06,16.00
2011,10,01,17,07,16.00
2011,10,01,17,08,16.00
2011,10,01,17,09,16.00
2011,10,01,17,10,16.00
2011,10,01,17,11,16.00
2011,10,01,17,12,15.90
2011,10,01,17,13,15.90
2011,10,01,17,14,15.90
2011,10,01,17,15,15.80
2011,10,01,17,16,15.80
2011,10,01,17,17,15.80
2011,10,01,17,18,15.80
2011,10,01,17,19,15.80
2011,10,01,17,20,15.80
2011,10,01,17,21,15.80
2011,10,01,17,22,15.80
2011,10,01,17,23,15.80
2011,10,01,17,24,15.70
2011,10,01,17,25,15.70
2011,10,01,17,26,15.60
2011,10,01,17,27,15.60
2011,10,01,17,28,15.60
2011,10,01,17,29,15.60
2011,10,01,17,30,15.60
2011,10,01,17,31,15.60
2011,10,01,17,32,15.50
2011,10,01,17,33,15.50
2011,10,01,17,34,15.50
2011,10,01,17,35,15.50
2011,10,01,17,36,15.40
2011,10,01,17,37,15.40
2011,10,01,17,38,15.40
2011,10,01,17,39,15.30
2011,10,01,17,40,15.30
2011,10,01,17,41,15.30
2011,10,01,17,42,15.20
2011,10,01,17,43,15.20
2011,10,01,17,44,15.20
2011,10,01,17,45,15.20
2011,10,01,17,46,15.20
2011,10,01,17,47,15.20
2011,10,01,17,48,15.20
2011,10,01,17,49,15.20
2011,10,01,17,50,15.10
2011,10,01,17,51,15.10
2011,10,01,17,52,15.00
2011,10,01,17,53,15.00
2011,10,01,17,54,15.00
2011,10,01,17,55,15.00
2011,10,01,17,56,15.00
2011,10,01,17,57,15.00
2011,10,01,17,58,15.00
2011,10,01,17,59,15.00
2011,10,01,18,00,15.00
2011,10,01,18,01,15.00
2011,10,01,18,02,15.00
2011,10,01,18,03,15.00
2011,10,01,18,04,15.00
2011,10,01,18,05,15.00
2011,10,01,18,06,15.00
2011,10,01,18,07,15.00
2011,10,01,18,08,15.00
2011,10,01,18,09,15.00
2011,10,01,18,10,15.00
2011,10,01,18,11,14.90
2011,10,01,18,12,14.80
2011,10,01,18,13,14.80
2011,10,01,18,14,14.70
2011,10,01,18,15,14.70
2011,10,01,18,16,14.70
2011,10,01,18,17,14.70
2011,10,01,18,18,14.70
2011,10,01,18,19,14.70
2011,10,01,18,20,14.60
2011,10,01,18,21,14.60
2011,10,01,18,22,14.60
2011,10,01,18,23,14.60
2011,10,01,18,24,14.60
2011,10,01,18,25,14.60
2011,10,01,18,26,14.50
2011,10,01,18,27,14.50
2011,10,01,18,28,14.40
2011,10,01,18,29,14.40
2011,10,01,18,30,14.40
2011,10,01,18,31,14.40
2011,10,01,18,32,14.40
2011,10,01,18,33,14.40
2011,10,01,18,34,14.40
2011,10,01,18,35,14.30
2011,10,01,18,36,14.30
2011,10,01,18,37,14.30
2011,10,01,18,38,14.30
2011,10,01,18,39,14.30
2011,10,01,18,40,14.20
2011,10,01,18,41,14.20
2011,10,01,18,42,14.20
2011,10,01,18,43,14.20
2011,10,01,18,44,14.20
2011,10,01,18,45,14.20
2011,10,01,18,46,14.20
2011,10,01,18,47,14.10
2011,10,01,18,48,14.10
2011,10,01,18,49,14.10
2011,10,01,18,50,14.10
2011,10,01,18,51,14.10
2011,10,01,18,52,14.10
2011,10,01,18,53,14.10
2011,10,01,18,54,14.10
2011,10,01,18,55,14.10
2011,10,01,18,56,14.10
2011,10,01,18,57,14.10
